Showing default

FIRESAT0, 63256

Orbit data source: Space-Track

FIRESAT0, 63256 is a payload satellite owned by Muon Space (US) in SSO that was launched on Sat, 15 Mar 2025 UTC via an FALCON 9 launch vehicle from the Air Force Western Test Range (AFWTR). Payload-class satellites include a variety of spacecraft equipped with specific instruments for various scientific and technological missions. These include communications satellites like Starlink; space stations such as the ISS; scientific satellites like the Hubble; Earth observation satellites from companies like Planet Labs, Umbra, and HawkEye 360; GPS; miniature CubeSats for education and research; and military/defense satellites.

Loading next visibility...
Identifier
63256, 2025-052AY
Orbit
SSO
Country
Flag of USUS
Related business
Manufacturer
Muon Space
Mission
Operational Commercial Imaging
Bus & Motor
MUON, Unknown motor
Mass
135 kg wet, 132 kg dry
Launch date (UTC)
2025-03-15 (1 year ago)
Launch vehicle
FALCON 9
Launch site
Air Force Western Test Range (AFWTR)
Object type
Payload
Rocket body
Debris
Shape & HBR
Box + 2 Pan, 1.7 m
Radar Cross Section
2.173 m², Large (>1 m²)

Expand to show TLE details & history
Last TLE update: 15 hours ago

TLE from 15 hours ago
0 FIRESAT0
1 63256U 25052AY  26129.66318356  .00000766  00000-0  79280-4 0  9993
2 63256  97.7003  21.6733 0002070  71.3165 288.8279 14.92851604 62848
Epoch: 2026-05-09T15:54Z
TLE epoch observation values (Epoch: 2026-05-09T15:54:59.059Z)
Latitude
-0.00004°
Longitude
-84.55016°
Altitude
591.629 km
Speed
7.564 km/s
True Right ascension
01h 26m 41s
True Declination
0° 00' 00"
Sunlit
Object was in daylight at epoch
Visualization orbit readout
Latitude
Unknown
Longitude
Unknown
Altitude
Unknown
Speed
Unknown
Apparent Right ascension
Unknown
Apparent Declination
Unknown
Sunlit
N/A
Visualization observer readout
Local Sidereal Time
15:09:14
Azimuth
Unknown
Elevation
Unknown
Doppler factor
Unknown
Orbital elements
Apogee altitude
587.506 km
Perigee altitude
584.622 km
Semi-major axis
6,964.201 km
Eccentricity
0.00021
Inclination
97.7003°
RAAN
21.6733°
Arg. of periapsis
71.3165°
True anomaly
288.80545°
Mean anomaly
288.8279°
Eccentric anomaly
288.81667°
Mean motion
3.73453 °/min
Orbital period
96.4 mins
BSTAR
0.00007928
Loading maneuver chart data...
Computing Atmospheric mass density...
Loading historical data...
Loading historical data...
Loading historical data...
Loading historical data...
Loading historical data...
Loading historical data...
Loading historical data...

Documentation

Showing up to 5 results
|